1529568001.08,43872,20.88,74388.8,13.09,4.63,5.55,0,*48
1529568002.27,43873,20.88,74388.8,13.07,4.37,5.29,0,*4D
1529568003.48,43874,20.88,74388.5,13.05,4.45,5.41,0,*43
1529568004.71,43875,20.88,74388.5,13.03,4.59,5.51,0,*48
1529568005.93,43876,20.88,74388.5,13.07,3.93,5.05,0,*4F
1529568007.14,43877,20.88,74386.8,13.03,3.53,4.57,0,*40
1529568008.35,43878,20.88,74390.3,13.03,3.41,4.57,0,*4C
1529568009.59,43879,20.88,74388.5,13.01,3.45,4.53,0,*4F
1529568010.78,43880,20.88,74386.3,12.99,3.85,5.07,0,*45
1529568011.98,43881,20.88,74390.3,12.99,4.15,5.33,0,*4D
1529568013.16,43882,20.88,74388.5,12.99,4.19,5.45,0,*43
1529568014.35,43883,20.88,74388.0,12.99,4.15,5.45,0,*4E
1529568015.57,43884,20.88,74394.0,13.01,3.93,5.11,0,*41
1529568016.79,43885,20.88,74388.0,13.01,3.81,5.07,0,*44
1529568018.05,43886,20.88,74390.5,13.01,3.33,4.63,0,*4D
1529568019.29,43887,20.88,74388.8,13.01,3.49,4.85,0,*49
1529568020.47,43888,20.88,74388.8,12.99,3.59,4.89,0,*4B
1529568021.65,43889,20.88,74388.0,12.99,2.99,4.19,0,*4E
1529568022.9,43890,20.88,74390.5,13.01,3.11,4.37,0,*4B
1529568024.11,43891,20.88,74388.3,12.99,3.23,4.45,0,*4E
1529568025.33,43892,20.88,74388.5,12.99,3.71,4.85,0,*46
1529568026.54,43893,20.88,74388.0,13.01,3.85,4.85,0,*4C
1529568027.75,43894,20.88,74388.8,13.01,3.81,4.85,0,*4F
1529568028.99,43895,20.88,74386.3,13.03,4.01,5.01,0,*4E
1529568030.26,43896,20.88,74384.3,13.05,3.75,4.63,0,*4A
1529568031.48,43897,20.88,74386.3,13.07,3.89,4.75,0,*4D
1529568032.69,43898,20.88,74386.8,13.07,4.01,4.85,0,*4A
1529568033.9,43899,20.88,74384.0,13.07,3.41,4.15,0,*41
1529568035.15,43900,20.88,74384.5,13.09,3.93,4.75,0,*47
1529568036.38,43901,20.88,74386.3,13.11,3.97,4.71,0,*4F
1529568037.61,43902,20.88,74386.0,13.13,4.01,4.89,0,*41
1529568038.84,43903,20.88,74386.8,13.19,4.05,4.59,0,*43
1529568040.05,43904,20.88,74386.8,13.17,3.29,3.93,0,*42
1529568041.25,43905,20.88,74386.0,13.19,3.25,3.79,0,*45
1529568042.43,43906,20.88,74386.8,13.19,2.99,3.55,0,*4E
1529568043.63,43907,20.88,74384.5,13.21,2.99,3.55,0,*44
1529568044.87,43908,20.88,74388.0,13.21,2.99,3.45,0,*4A
1529568046.08,43909,20.88,74384.5,13.23,1.75,2.17,0,*4E
1529568047.31,43910,20.88,74386.3,13.23,1.71,2.09,0,*4D
1529568048.57,43911,20.88,74386.5,13.21,1.55,1.93,0,*48
1529568049.78,43912,20.88,74382.8,13.25,1.83,2.17,0,*4B
1529568050.98,43913,20.88,74386.0,13.25,1.79,2.21,0,*4A
1529568052.21,43914,20.88,74386.3,13.25,0.87,1.13,0,*7F
1529568053.46,43915,20.88,74386.5,13.27,1.13,1.47,0,*41
1529568054.72,43916,20.88,74386.8,13.27,1.47,1.85,0,*4D
1529568055.97,43917,20.88,74386.0,13.27,1.51,2.01,0,*44
1529568057.21,43918,20.88,74384.5,13.27,1.37,1.79,0,*47
1529568058.44,43919,20.88,74388.5,13.29,1.17,1.67,0,*45
1529568059.71,43920,20.88,74388.8,13.31,1.13,1.55,0,*43
1529568060.93,43921,20.88,74386.5,13.31,0.09,0.51,0,*7D
1529568062.19,43922,20.88,74386.8,13.31,-0.97,-0.27,0,*48
1529568063.42,43923,20.88,74386.5,13.31,-0.37,0.41,0,*6E
1529568064.64,43924,20.88,74390.8,13.31,0.13,1.01,0,*77
1529568065.82,43925,20.88,74390.8,13.29,-0.41,0.43,0,*62
1529568067.06,43926,20.88,74390.0,13.31,-0.73,0.21,0,*6D
1529568068.27,43927,20.88,74386.3,13.29,-1.01,0.09,0,*6B
1529568069.48,43928,20.88,74384.0,13.31,-1.33,0.01,0,*64
1529568070.74,43929,20.88,74384.5,13.31,-1.13,0.29,0,*5D
1529568072.0,43930,20.88,74384.3,13.31,-1.39,0.13,0,*54
1529568073.22,43931,20.88,74384.3,13.31,-1.75,-0.11,0,*72
1529568074.41,43932,20.88,74380.3,13.29,-2.27,-0.37,0,*78
1529568075.68,43933,20.88,74382.5,13.31,-1.83,0.21,0,*57
1529568076.91,43934,20.88,74380.8,13.31,-1.63,0.47,0,*5E
1529568078.15,43935,20.88,74384.8,13.31,-1.71,0.51,0,*5B
1529568079.41,43936,20.88,74382.0,13.35,-1.91,0.51,0,*52
1529568080.67,43937,20.88,74384.0,13.35,-2.11,0.51,0,*58
1529568081.9,43938,20.88,74386.5,13.35,-1.83,1.01,0,*6B
1529568083.1,43939,20.88,74386.3,13.33,-2.15,0.83,0,*5B
1529568084.36,43940,20.88,74384.3,13.35,-2.03,1.17,0,*68
1529568085.59,43941,20.88,74388.0,13.37,-2.03,1.29,0,*66
1529568086.83,43942,20.88,74386.0,13.41,-1.43,2.05,0,*6E
1529568088.04,43943,20.88,74384.5,13.41,-1.51,2.17,0,*6F
1529568089.24,43944,20.88,74382.5,13.45,-1.59,2.21,0,*61
1529568090.48,43945,20.88,74384.3,13.47,-2.31,1.51,0,*6B
1529568091.71,43946,20.88,74380.3,13.47,-2.87,1.17,0,*67
1529568092.94,43947,20.88,74386.5,13.47,-2.31,2.01,0,*6F
1529568094.2,43948,20.88,74386.0,13.47,-2.47,1.97,0,*6D
1529568095.41,43949,20.88,74384.5,13.49,-2.43,2.17,0,*6D
1529568096.64,43950,20.88,74384.3,13.51,-2.19,2.47,0,*66
1529568097.89,43951,20.88,74384.5,13.53,-1.99,2.81,0,*64
1529568099.12,43952,20.88,74384.3,13.57,-1.59,3.37,0,*63
1529568100.31,43953,20.88,74384.8,13.59,-1.67,3.29,0,*6E
1529568101.53,43954,20.88,74380.8,13.63,-0.97,4.07,0,*55
1529568102.73,43955,20.88,74382.0,13.63,0.21,5.33,0,*72
1529568103.94,43956,20.88,74384.5,13.71,0.79,6.03,0,*7F
1529568105.2,43957,20.88,74384.5,13.77,1.37,6.61,0,*47
1529568106.41,43958,20.88,74380.0,13.85,2.35,7.37,0,*46
1529568107.66,43959,20.88,74386.5,13.91,1.59,6.87,0,*41
1529568108.87,43960,20.88,74382.5,13.97,2.17,7.45,0,*4B
1529568110.08,43961,20.88,74384.3,14.05,1.79,7.15,0,*48
1529568111.3,43962,20.88,74386.5,14.11,0.55,6.07,0,*73
1529568112.51,43963,20.88,74384.8,14.15,-0.45,5.07,0,*59
1529568113.72,43964,20.88,74386.3,14.17,-0.93,4.85,0,*5C
1529568114.95,43965,20.88,74390.8,14.19,-2.71,2.95,0,*6A
1529568116.16,43966,20.88,74388.5,14.17,-4.01,1.83,0,*62
1529568117.38,43967,20.88,74380.8,14.17,-4.57,1.33,0,*6B
1529568118.63,43968,20.88,74372.5,14.15,-5.19,0.71,0,*5A
1529568119.81,43969,20.88,74382.5,14.13,-4.41,1.41,0,*63
1529568121.02,43970,20.88,74380.8,14.13,-4.33,1.51,0,*6F
1529568122.25,43971,20.88,74382.8,14.13,-3.67,2.05,0,*6A
1529568123.46,43972,20.88,74372.8,14.13,-3.07,2.73,0,*6E
1529568124.72,43973,20.88,74376.5,14.15,-2.03,3.67,0,*68
1529568125.92,43974,20.88,74382.5,14.15,-2.39,3.29,0,*6C
1529568127.13,43975,20.88,74378.3,14.17,-1.35,4.15,0,*68
1529568128.35,43976,20.88,74382.8,14.19,0.75,6.11,0,*7B
1529568129.56,43977,20.88,74386.8,14.27,1.37,6.83,0,*4B
1529568130.77,43978,20.88,74388.3,14.35,2.39,7.79,0,*4E
1529568132.0,43979,20.88,74386.0,14.41,2.69,8.23,0,*49
1529568133.23,43980,20.88,74388.8,14.49,2.89,8.27,0,*4D
1529568134.48,43981,20.88,74386.3,14.55,2.01,7.27,0,*4E
1529568135.71,43982,20.88,74386.0,14.63,1.63,7.33,0,*4A
1529568136.95,43983,20.88,74382.0,14.67,1.33,7.29,0,*41
1529568138.13,43984,20.88,74384.5,14.77,2.35,7.97,0,*47
1529568139.36,43985,20.88,74380.8,14.81,1.93,7.73,0,*4A
1529568140.57,43986,20.88,74386.5,14.89,2.47,8.09,0,*49
1529568141.8,43987,20.88,74382.8,14.91,1.47,7.33,0,*44
1529568143.06,43988,20.88,74390.3,14.99,1.29,7.15,0,*4F
1529568144.31,43989,20.88,74388.0,15.03,0.63,6.61,0,*71
1529568145.55,43990,20.88,74384.3,15.07,0.33,6.35,0,*79
1529568146.77,43991,20.88,74380.5,15.11,0.17,6.21,0,*7C
1529568148.02,43992,20.88,74386.8,15.15,0.55,6.69,0,*71
1529568149.24,43993,20.88,74388.3,15.21,0.71,6.79,0,*70
1529568150.46,43994,20.88,74384.3,15.25,0.71,6.83,0,*76
1529568151.69,43995,20.88,74388.8,15.29,0.97,7.19,0,*71
1529568152.87,43996,20.88,74390.0,15.31,1.01,7.29,0,*46
1529568154.13,43997,20.88,74390.0,15.37,1.59,7.77,0,*47
1529568155.34,43998,20.88,74390.3,15.43,1.05,7.19,0,*4A
1529568156.52,43999,20.88,74390.0,15.47,1.41,7.59,0,*4B
1529568157.77,44000,20.88,74390.3,15.51,2.25,8.29,0,*4B
1529568159.0,44001,20.88,74388.3,15.55,2.95,9.11,0,*4F
1529568160.25,44002,20.88,74390.5,15.59,2.81,8.75,0,*46
1529568161.48,44003,20.88,74390.0,15.67,3.29,9.15,0,*4E
1529568162.7,44004,20.88,74388.5,15.73,2.89,8.75,0,*40
1529568163.88,44005,20.88,74390.3,15.77,3.89,9.75,0,*45
1529568165.14,44006,20.88,74390.3,15.85,4.31,9.89,0,*4C
1529568166.37,44007,20.88,74390.3,15.91,4.59,10.37,0,*7B
1529568167.56,44008,20.88,74384.8,15.99,4.49,10.13,0,*7B
1529568168.75,44009,20.88,74386.5,16.03,3.59,9.15,0,*42
1529568169.98,44010,20.88,74384.8,16.07,1.29,7.11,0,*41
1529568171.21,44011,20.88,74388.3,16.07,1.47,7.15,0,*4C
1529568172.41,44012,20.88,74388.3,16.07,1.13,6.79,0,*45
1529568173.63,44013,20.88,74388.3,16.07,0.91,6.57,0,*73
1529568174.85,44014,20.88,74384.8,16.07,1.63,7.15,0,*4F
1529568176.08,44015,20.88,74386.8,16.07,2.13,7.69,0,*41
1529568177.3,44016,20.88,74386.0,16.07,2.73,8.33,0,*44
1529568178.53,44017,20.88,74388.3,16.11,4.01,9.53,0,*46
1529568179.81,44018,20.88,74388.5,16.13,4.93,10.31,0,*7C
1529568181.05,44019,20.88,74388.3,16.17,5.73,11.09,0,*7C
1529568182.31,44020,20.88,74390.5,16.21,5.51,10.61,0,*7C
1529568183.53,44021,20.88,74390.3,16.27,6.69,11.55,0,*75
1529568184.74,44022,20.88,74386.8,16.31,7.23,11.93,0,*74
1529568185.99,44023,20.88,74388.3,16.31,8.47,12.87,0,*7E
1529568187.18,44024,20.88,74390.3,16.39,8.09,12.27,0,*71
1529568188.44,44025,20.88,74388.3,16.41,7.69,11.71,0,*76
1529568189.66,44026,20.88,74386.8,16.39,6.87,10.69,0,*73
1529568190.93,44027,20.88,74388.3,16.41,6.57,10.23,0,*7E
1529568192.13,44028,20.88,74386.0,16.43,6.25,9.63,0,*4A
1529568193.35,44029,20.88,74386.3,16.43,6.33,9.57,0,*4B
1529568194.59,44030,20.88,74384.8,16.39,6.53,9.53,0,*4C
1529568195.82,44031,20.88,74386.0,16.39,6.69,9.57,0,*40
1529568197.04,44032,20.88,74388.3,16.37,8.15,10.69,0,*7D
1529568198.31,44033,20.88,74386.3,16.37,9.15,11.61,0,*74
1529568199.58,44034,20.88,74386.3,16.37,9.35,11.61,0,*71
1529568200.77,44035,20.88,74386.5,16.39,8.79,10.89,0,*70
1529568202.04,44036,20.88,74386.0,16.41,8.29,10.31,0,*7A
1529568203.23,44037,20.88,74384.0,16.39,8.15,9.99,0,*41
1529568204.45,44038,20.88,74386.8,16.39,8.65,10.23,0,*70
1529568205.72,44039,20.88,74390.3,16.37,8.89,10.23,0,*7D
1529568206.96,44040,20.88,74384.3,16.33,8.33,9.67,0,*4E
1529568208.19,44041,20.88,74384.3,16.33,8.23,9.43,0,*48
1529568209.39,44042,20.88,74388.3,16.31,8.71,9.63,0,*4C
1529568210.58,44043,20.88,74384.8,16.31,8.79,9.71,0,*46
1529568211.85,44044,20.88,74386.5,16.29,8.89,9.81,0,*48
1529568213.09,44045,20.88,74386.8,16.29,8.59,9.33,0,*4D
1529568214.3,44046,20.88,74388.3,16.27,8.45,9.15,0,*49
1529568215.54,44047,20.88,74386.8,16.23,7.73,8.33,0,*43
1529568216.77,44048,20.88,74386.5,16.21,8.05,8.59,0,*4C
1529568218.03,44049,20.88,74384.5,16.17,8.33,8.75,0,*43
1529568219.22,44050,20.88,74384.5,16.15,8.01,8.61,0,*4D
1529568220.42,44051,20.88,74390.0,16.11,7.69,8.27,0,*4B
1529568221.63,44052,20.88,74384.3,16.11,7.27,7.79,0,*46
1529568222.85,44053,20.88,74384.8,16.07,7.91,8.47,0,*4F
1529568224.08,44054,20.88,74386.5,16.01,7.09,7.61,0,*44
1529568225.31,44055,20.88,74390.0,16.01,7.47,8.09,0,*4E
1529568226.51,44056,20.88,74386.0,15.99,7.65,8.27,0,*43
1529568227.76,44057,20.88,74388.3,15.97,8.13,8.75,0,*45
1529568228.99,44058,20.88,74386.3,15.97,7.29,7.91,0,*49
1529568230.2,44059,20.88,74386.5,15.91,7.09,7.77,0,*44
1529568231.38,44060,20.88,74390.3,15.91,6.75,7.37,0,*40
1529568232.58,44061,20.88,74386.5,15.83,6.03,6.73,0,*42
1529568233.79,44062,20.88,74390.5,15.81,7.51,8.27,0,*4A
1529568234.99,44063,20.88,74390.8,15.79,7.33,8.05,0,*48
1529568236.19,44064,20.88,74392.5,15.79,6.75,7.59,0,*4A
1529568237.43,44065,20.88,74392.0,15.75,6.43,7.29,0,*45
1529568238.63,44066,20.88,74388.0,15.73,6.39,7.37,0,*42
1529568239.86,44067,20.88,74388.3,15.71,7.37,8.37,0,*41
1529568241.07,44068,20.88,74390.3,15.71,7.33,8.27,0,*4B
1529568242.3,44069,20.88,74388.3,15.67,6.53,7.59,0,*4C
1529568243.53,44070,20.88,74388.8,15.63,6.17,7.41,0,*49
1529568244.76,44071,20.88,74388.0,15.61,6.73,7.95,0,*41
1529568245.97,44072,20.88,74390.0,15.61,6.87,8.09,0,*43
1529568247.19,44073,20.88,74386.5,15.61,7.11,8.29,0,*4E
1529568248.4,44074,20.88,74390.5,15.57,6.91,8.15,0,*4A
1529568249.61,44075,20.88,74390.0,15.57,6.79,8.13,0,*4B
1529568250.84,44076,20.88,74388.3,15.57,7.11,8.37,0,*41
1529568252.06,44077,20.88,74390.3,15.57,6.57,8.05,0,*42
1529568253.3,44078,20.88,74390.0,15.53,6.47,7.95,0,*4E
1529568254.51,44079,20.88,74388.5,15.53,6.73,8.19,0,*43
1529568255.72,44080,20.88,74388.5,15.51,6.21,7.79,0,*49
1529568256.93,44081,20.88,74390.3,15.49,5.63,7.27,0,*4F
1529568258.13,44082,20.88,74390.0,15.49,5.81,7.59,0,*49
1529568259.35,44083,20.88,74386.3,15.45,5.27,6.97,0,*4B
1529568260.58,44084,20.88,74386.5,15.45,5.15,6.87,0,*4C
1529568261.78,44085,20.88,74384.8,15.39,4.53,6.39,0,*40
1529568263.01,44086,20.88,74388.8,15.35,4.93,6.87,0,*46
1529568264.21,44087,20.88,74384.3,15.35,5.41,7.47,0,*44
1529568265.47,44088,20.88,74390.3,15.33,5.81,7.77,0,*42
1529568266.72,44089,20.88,74390.5,15.33,5.81,7.91,0,*4B
1529568267.94,44090,20.88,74392.8,15.33,6.25,8.19,0,*41
1529568269.17,44091,20.88,74392.5,15.33,5.81,7.79,0,*44
1529568270.38,44092,20.88,74388.8,15.33,5.95,8.01,0,*42
1529568271.58,44093,20.88,74386.5,15.31,5.73,7.79,0,*49
1529568272.82,44094,20.88,74386.5,15.33,6.33,8.47,0,*49
1529568274.03,44095,20.88,74386.8,15.31,6.13,8.23,0,*4A
1529568275.22,44096,20.88,74386.0,15.31,6.03,8.19,0,*41
1529568276.45,44097,20.94,74388.5,15.29,6.29,8.51,0,*4D
1529568277.7,44098,20.88,74384.8,15.33,6.17,8.29,0,*4B
1529568278.94,44099,20.88,74386.0,15.31,6.73,8.89,0,*40
1529568280.12,44100,20.88,74388.0,15.31,7.09,9.25,0,*4A
1529568281.33,44101,20.94,74388.5,15.31,7.19,9.43,0,*4A
1529568282.56,44102,20.88,74388.0,15.33,7.33,9.53,0,*42
1529568283.76,44103,20.88,74386.8,15.33,6.75,8.79,0,*49
1529568284.97,44104,20.94,74390.8,15.33,7.41,9.47,0,*44
1529568286.2,44105,20.88,74390.5,15.37,7.27,9.25,0,*45
1529568287.45,44106,20.88,74388.5,15.37,6.53,8.59,0,*4E
1529568288.64,44107,20.94,74390.5,15.35,7.45,9.47,0,*45
1529568289.87,44108,20.88,74390.8,15.37,7.77,9.67,0,*4B
1529568291.1,44109,20.88,74390.0,15.39,8.71,10.57,0,*76
1529568292.33,44110,20.88,74390.0,15.43,9.57,11.37,0,*71
1529568293.54,44111,20.88,74390.0,15.47,9.29,11.23,0,*78
1529568294.75,44112,20.88,74388.5,15.51,8.65,10.51,0,*71
1529568296.02,44113,20.88,74388.3,15.51,8.29,10.31,0,*7E
1529568297.25,44114,20.88,74390.8,15.53,8.51,10.41,0,*73
1529568298.51,44115,20.88,74392.0,15.55,7.77,9.61,0,*45
1529568299.74,44116,20.88,74392.5,15.55,7.01,8.89,0,*40
1529568300.97,44117,20.88,74394.0,15.55,7.23,9.03,0,*42
1529568302.23,44118,20.88,74392.8,15.55,6.87,8.59,0,*4C
1529568303.45,44119,20.88,74394.8,15.53,6.35,8.01,0,*4F
1529568304.66,44120,20.88,74392.5,15.55,7.09,8.83,0,*47
1529568305.89,44121,20.88,74390.8,15.55,7.69,9.33,0,*4A
1529568307.06,44122,20.88,74394.0,15.53,8.01,9.63,0,*4B
1529568308.24,44123,20.88,74394.5,15.53,8.01,9.63,0,*4A
1529568309.45,44124,20.88,74392.0,15.55,8.15,9.71,0,*4D
1529568310.68,44125,20.88,74390.0,15.55,7.87,9.25,0,*49
1529568311.92,44126,20.88,74392.5,15.55,7.55,8.93,0,*49
1529568313.1,44127,20.94,74396.5,15.57,6.79,8.15,0,*4B
1529568314.33,44128,20.88,74392.8,15.57,7.19,8.47,0,*44
1529568315.54,44129,20.88,74392.0,15.53,7.95,9.21,0,*44
1529568316.72,44130,20.88,74392.0,15.53,7.97,9.21,0,*4E
1529568317.92,44131,20.94,74394.3,15.57,8.01,9.15,0,*4C
1529568319.16,44132,20.88,74392.0,15.55,7.79,8.71,0,*4E
1529568320.39,44133,20.88,74392.5,15.53,7.19,8.13,0,*4B
1529568321.63,44134,20.94,74392.8,15.53,6.35,7.15,0,*4A
1529568322.86,44135,20.88,74392.5,15.51,6.13,6.93,0,*42
1529568324.04,44136,20.88,74394.8,15.49,7.05,7.79,0,*4B
1529568325.26,44137,20.88,74392.0,15.49,7.05,7.73,0,*40
1529568326.46,44138,20.88,74390.0,15.45,6.97,7.59,0,*41
1529568327.69,44139,20.88,74392.0,15.47,6.87,7.47,0,*4C
1529568328.9,44140,20.88,74392.8,15.45,7.37,8.01,0,*47
1529568330.13,44141,20.94,74392.8,15.39,7.27,7.73,0,*46
1529568331.31,44142,20.94,74392.8,15.39,7.51,7.97,0,*4E
1529568332.51,44143,20.94,74392.0,15.39,7.37,7.73,0,*45
1529568333.75,44144,20.88,74394.0,15.37,7.59,7.95,0,*4C
1529568335.0,44145,20.88,74392.5,15.37,7.65,7.95,0,*42
1529568336.21,44146,20.88,74394.3,15.35,7.77,8.05,0,*46
1529568337.43,44147,20.88,74394.8,15.35,7.27,7.55,0,*48
1529568338.61,44148,20.88,74394.0,15.35,6.97,7.05,0,*48
1529568339.83,44149,20.94,74392.0,15.31,6.61,6.73,0,*44
1529568341.01,44150,20.94,74394.0,15.31,7.29,7.33,0,*44
1529568342.2,44151,20.88,74388.5,15.27,6.97,6.83,0,*4C
1529568343.44,44152,20.88,74392.0,15.27,7.23,7.15,0,*4F
1529568344.65,44153,20.94,74392.3,15.27,6.57,6.33,0,*49
1529568345.86,44154,20.88,74394.0,15.25,6.29,5.95,0,*4A
1529568347.07,44155,20.94,74392.5,15.23,7.11,6.83,0,*43
1529568348.29,44156,20.88,74388.5,15.17,7.69,7.33,0,*42
1529568349.53,44157,20.94,74396.8,15.21,7.95,7.45,0,*44
1529568350.74,44158,20.88,74394.3,15.17,8.15,7.55,0,*48
1529568351.97,44159,20.88,74392.0,15.17,8.15,7.47,0,*4A
1529568353.23,44160,20.88,74392.5,15.17,7.91,7.23,0,*41
1529568354.43,44161,20.88,74392.8,15.17,8.05,7.33,0,*43
1529568355.68,44162,20.88,74392.5,15.17,7.83,7.27,0,*44
1529568356.9,44163,20.94,74396.0,15.15,7.83,7.05,0,*47
1529568358.16,44164,20.88,74392.5,15.15,7.95,7.11,0,*42
1529568359.36,44165,20.88,74394.0,15.13,7.77,6.79,0,*46
1529568360.56,44166,20.94,74396.3,15.13,7.91,7.01,0,*43
1529568361.76,44167,20.94,74394.0,15.13,7.77,6.79,0,*44
1529568362.96,44168,20.88,74392.3,15.11,8.09,7.01,0,*41
1529568364.19,44169,20.88,74394.3,15.11,8.47,7.45,0,*4A
1529568365.42,44170,20.88,74394.3,15.11,8.33,7.41,0,*45
1529568366.65,44171,20.88,74392.5,15.11,8.19,7.19,0,*41
1529568367.85,44172,20.88,74394.3,15.11,8.09,6.97,0,*44
1529568369.09,44173,20.94,74398.3,15.11,8.23,7.23,0,*43
1529568370.27,44174,20.88,74392.8,15.09,8.15,7.09,0,*40
1529568371.49,44175,20.94,74398.0,15.09,7.83,6.87,0,*46
1529568372.67,44176,20.94,74396.5,15.09,8.05,6.97,0,*45
1529568373.9,44177,20.94,74398.3,15.11,8.33,7.41,0,*42
1529568375.07,44178,20.94,74392.8,15.09,8.45,7.41,0,*45
1529568376.28,44179,20.88,74392.5,15.09,8.41,7.41,0,*40
1529568377.51,44180,20.88,74390.0,15.11,8.47,7.55,0,*4C
1529568378.74,44181,20.94,74394.3,15.11,8.19,7.11,0,*46
1529568380.0,44182,20.94,74394.3,15.11,7.91,6.87,0,*44
1529568381.25,44183,20.94,74396.0,15.11,7.69,6.51,0,*49
1529568382.46,44184,20.94,74398.3,15.09,6.97,5.93,0,*4A
1529568383.66,44185,20.88,74392.8,15.09,7.37,6.17,0,*4F
1529568384.89,44186,20.94,74394.8,15.09,7.61,6.61,0,*4E
1529568386.06,44187,20.88,74392.3,15.09,7.37,6.25,0,*4C
1529568387.32,44188,20.88,74392.8,15.07,6.91,5.89,0,*45
1529568388.55,44189,20.94,74394.3,15.07,6.83,5.89,0,*47
1529568389.75,44190,20.88,74390.3,15.07,7.33,6.25,0,*40
1529568390.96,44191,20.88,74390.8,15.07,6.93,5.99,0,*4E
1529568392.17,44192,20.88,74390.0,15.07,7.01,5.95,0,*4B
1529568393.42,44193,20.88,74390.0,15.07,6.91,5.89,0,*4F
1529568394.68,44194,20.94,74392.5,15.07,7.23,6.13,0,*40
1529568395.92,44195,20.94,74394.5,15.07,6.65,5.67,0,*42
1529568397.18,44196,20.94,74390.8,15.07,6.57,5.51,0,*45
1529568398.42,44197,20.88,74390.8,15.07,6.35,5.45,0,*45
1529568399.63,44198,20.88,74390.0,15.09,6.35,5.45,0,*44
1529568400.83,44199,20.88,74390.8,15.07,6.11,5.45,0,*4D
1529568402.07,44200,20.88,74388.3,15.07,6.33,5.89,0,*4E
1529568403.29,44201,20.94,74392.0,15.07,5.95,5.67,0,*40
1529568404.52,44202,20.94,74392.8,15.07,5.99,5.89,0,*4F
1529568405.77,44203,20.94,74394.8,15.07,6.13,6.13,0,*4F
1529568406.98,44204,20.88,74394.8,15.09,5.55,5.67,0,*47
1529568408.21,44205,20.94,74392.5,15.09,4.97,5.27,0,*4D
1529568409.41,44206,20.88,74390.3,15.05,4.45,4.79,0,*47
1529568410.65,44207,20.94,74394.0,15.05,4.67,5.05,0,*4C
1529568411.82,44208,20.94,74394.5,15.05,5.29,5.49,0,*40
1529568413.0,44209,20.94,74392.5,15.01,5.37,5.49,0,*4A
1529568414.18,44210,20.94,74394.8,15.01,5.11,5.15,0,*4F
1529568415.45,44211,20.94,74394.5,15.03,5.01,5.27,0,*4C
1529568416.68,44212,20.94,74394.3,15.03,5.27,5.37,0,*4A
1529568417.89,44213,20.88,74388.0,15.01,5.33,5.55,0,*48
1529568419.09,44214,20.94,74392.3,15.01,5.37,5.55,0,*4B
1529568420.3,44215,20.94,74394.3,15.03,5.37,5.71,0,*4E
1529568421.51,44216,20.94,74394.3,15.01,4.97,5.33,0,*42
1529568422.72,44217,20.94,74392.3,15.03,4.81,5.29,0,*4D
1529568423.93,44218,20.94,74394.8,15.03,4.19,4.81,0,*40
1529568425.17,44219,20.94,74396.8,15.03,4.23,5.01,0,*41
1529568426.44,44220,20.94,74396.3,15.03,3.97,5.01,0,*43
1529568427.71,44221,20.88,74394.8,15.03,3.79,5.05,0,*46
1529568428.92,44222,20.94,74394.8,15.07,3.93,5.29,0,*4B
1529568430.15,44223,20.94,74394.3,15.07,3.53,5.07,0,*4A
1529568431.38,44224,20.94,74394.8,15.07,2.81,4.49,0,*48
1529568432.61,44225,20.94,74394.0,15.09,1.59,3.49,0,*46
1529568433.81,44226,20.94,74392.3,15.09,1.41,3.37,0,*45
1529568435.01,44227,20.88,74390.8,15.09,1.83,3.97,0,*40
1529568436.21,44228,20.94,74392.5,15.09,1.43,3.85,0,*40
1529568437.45,44229,20.88,74392.5,15.11,1.37,3.85,0,*4B
1529568438.69,44230,20.94,74394.0,15.11,1.37,4.07,0,*4E
1529568439.92,44231,20.94,74396.0,15.15,1.67,4.45,0,*48
1529568441.15,44232,20.94,74392.3,15.13,1.43,4.31,0,*48
1529568442.39,44233,20.94,74398.8,15.15,1.37,4.37,0,*4A
1529568443.6,44234,20.94,74398.3,15.21,0.97,4.19,0,*7D
1529568444.85,44235,20.94,74396.0,15.21,0.47,3.71,0,*78
1529568446.11,44236,20.94,74396.0,15.21,0.25,3.71,0,*7F
1529568447.37,44237,20.94,74398.8,15.21,2.51,5.89,0,*4E
1529568448.57,44238,20.94,74396.5,15.25,3.81,7.33,0,*4A
1529568449.81,44239,20.94,74396.8,15.33,4.11,7.61,0,*45
1529568450.98,44240,20.94,74396.5,15.39,4.27,7.97,0,*4D
1529568452.19,44241,20.94,74396.8,15.47,4.11,7.95,0,*42
1529568453.43,44242,20.94,74394.8,15.51,4.59,8.69,0,*46
1529568454.67,44243,20.94,74394.0,15.63,5.27,9.11,0,*40
1529568455.9,44244,20.94,74392.3,15.71,4.85,8.93,0,*46
1529568457.1,44245,20.94,74394.3,15.77,5.45,9.53,0,*41
1529568458.31,44246,20.94,74396.5,15.83,5.89,10.05,0,*72
1529568459.51,44247,20.94,74396.8,15.95,5.15,9.35,0,*4A
1529568460.72,44248,20.94,74396.8,16.01,5.07,9.39,0,*44
1529568461.93,44249,20.94,74396.8,16.07,4.71,9.03,0,*4A
1529568463.14,44250,20.94,74398.3,16.13,4.81,9.07,0,*4C
1529568464.38,44251,20.94,74396.5,16.21,3.93,8.41,0,*4B
1529568465.6,44252,20.94,74396.5,16.27,3.85,8.33,0,*4C
1529568466.81,44253,20.88,74392.5,16.29,4.19,8.69,0,*4E
1529568468.04,44254,20.94,74394.5,16.37,4.79,9.21,0,*4D
1529568469.24,44255,20.94,74392.5,16.43,6.03,10.51,0,*7F
1529568470.44,44256,20.94,74396.3,16.49,5.95,10.33,0,*7E
1529568471.71,44257,20.94,74398.5,16.59,5.05,9.57,0,*4D
1529568472.94,44258,20.94,74400.3,16.63,4.37,8.93,0,*42
1529568474.17,44259,20.88,74394.8,16.63,4.45,9.11,0,*4D
1529568475.37,44260,20.94,74398.5,16.69,4.07,8.71,0,*4C
1529568476.61,44261,20.94,74398.5,16.71,3.85,8.37,0,*4B
1529568477.87,44262,20.94,74396.8,16.75,3.67,8.29,0,*4F
1529568479.07,44263,20.88,74394.3,16.77,2.61,7.33,0,*4F
1529568480.31,44264,20.94,74398.3,16.77,2.39,6.97,0,*4A
1529568481.53,44265,20.94,74396.0,16.81,2.73,7.33,0,*43
1529568482.76,44266,20.94,74404.0,16.77,2.61,7.11,0,*4A
1529568483.99,44267,20.94,74400.8,16.81,0.97,5.73,0,*7F
1529568485.24,44268,20.94,74400.0,16.81,0.37,5.27,0,*7B
1529568486.49,44269,20.94,74396.3,16.81,0.13,5.27,0,*7C
1529568487.75,44270,20.94,74394.8,16.77,-1.35,4.05,0,*64
1529568488.99,44271,20.94,74394.8,16.75,-1.39,4.19,0,*66
1529568490.2,44272,20.94,74392.5,16.73,-0.81,4.97,0,*57
1529568491.41,44273,20.94,74392.5,16.71,-0.33,5.63,0,*57
1529568492.62,44274,20.94,74394.8,16.69,-0.23,5.67,0,*5C
1529568493.81,44275,20.94,74396.0,16.69,2.31,8.05,0,*48
1529568495.03,44276,20.94,74392.3,16.73,3.53,9.35,0,*47
1529568496.3,44277,20.94,74394.0,16.77,4.05,9.77,0,*40
1529568497.53,44278,20.94,74398.0,16.81,3.37,9.21,0,*43
1529568498.76,44279,20.94,74400.0,16.85,3.19,9.07,0,*4E
1529568500.01,44280,20.94,74398.8,16.89,4.33,10.31,0,*76
1529568501.21,44281,20.94,74394.8,16.95,3.85,9.77,0,*4A
1529568502.4,44282,20.94,74392.5,16.99,2.95,9.03,0,*46
1529568503.64,44283,20.94,74394.8,17.01,1.37,7.51,0,*45
1529568504.89,44284,20.94,74392.5,17.05,1.67,7.91,0,*4F
1529568506.12,44285,20.94,74396.3,17.07,1.55,7.77,0,*45
1529568507.33,44286,20.94,74394.3,17.07,1.93,8.09,0,*4A
1529568508.54,44287,20.94,74394.3,17.07,1.79,7.95,0,*45
1529568509.75,44288,20.94,74392.8,17.09,1.09,7.29,0,*44
1529568511.02,44289,20.94,74394.0,17.11,2.77,9.01,0,*42
1529568512.28,44290,20.94,74394.0,17.15,3.67,9.61,0,*48
1529568513.53,44291,20.94,74392.0,17.19,3.15,9.15,0,*43
1529568514.79,44292,20.94,74394.0,17.23,3.41,9.61,0,*4B
1529568516.05,44293,20.94,74394.5,17.27,2.39,8.41,0,*43
1529568517.25,44294,20.94,74392.5,17.33,3.25,9.11,0,*49
1529568518.51,44295,20.94,74394.3,17.35,2.39,8.37,0,*47
1529568519.75,44296,20.94,74396.3,17.37,1.09,7.23,0,*4C
1529568520.96,44297,20.94,74392.5,17.37,0.33,6.53,0,*73
1529568522.16,44298,20.94,74396.5,17.37,-0.33,5.93,0,*5E